Vorticity
-6 5 9 14 20 23 7 -1 -9 -6 -4 -2 3 10 8 12 13 14 7 4 3 3 3 8 11 9 7 7 7 9 7 10 10 12 13 13 11 10 11 11 10 11 11 11
5 3 2 1 2 5 9 10 10 7 18 16 8 8 10 14 13 7 4 4 3 4 3 12 11 8 7 7 7 9 6 9 10 12 13 15 12 10 10 11 11 10 11 11
2 10 -0 30 39 17 4 6 10 10 22 -0 8 6 7 12 9 5 5 5 5 4 12 11 10 9 7 7 8 8 7 8 9 11 13 15 14 11 10 11 11 10 9 10
17 18 7 9 6 7 19 14 5 14 18 10 4 5 8 9 7 6 6 5 6 10 11 10 9 8 7 7 8 7 8 7 8 11 13 14 16 13 10 10 11 10 9 9
-3 22 -21 -1 13 11 -2 15 7 14 9 13 5 5 10 8 6 6 7 7 9 10 10 9 8 8 8 7 9 8 7 7 8 11 12 15 15 16 12 10 10 9 9 9
18 5 -3 14 36 15 16 12 19 12 11 12 13 12 7 8 6 4 8 9 9 10 10 9 8 8 8 7 8 8 7 7 7 10 12 14 14 17 14 11 10 9 8 9
-7 -6 20 15 0 10 -3 3 9 9 10 9 12 7 6 7 6 7 8 9 9 10 9 9 8 7 9 7 8 9 7 7 7 10 12 14 14 17 16 12 11 12 10 8
15 10 18 19 20 -6 15 8 6 8 10 8 9 8 8 8 8 9 8 9 9 9 9 9 8 8 8 8 7 8 8 7 7 9 12 13 14 15 17 15 11 12 13 9
-23 23 -3 5 29 21 8 4 6 9 9 7 9 8 9 10 10 8 8 9 8 8 9 9 8 8 8 7 8 8 8 7 7 8 11 12 13 14 16 18 15 12 11 15
10 29 5 15 13 2 7 3 6 8 8 8 9 10 9 10 9 7 7 9 8 8 9 9 9 9 8 8 8 8 8 8 7 8 10 11 11 11 15 15 16 14 11 10
3 9 -1 24 1 -1 4 6 6 7 6 7 9 8 8 9 9 5 9 8 8 8 8 9 9 9 9 8 8 8 8 8 7 8 10 10 11 10 11 12 12 14 12 10
-2 12 40 1 27 23 14 6 11 8 6 8 8 8 9 8 7 7 9 8 8 7 8 8 9 10 8 8 8 9 8 8 7 8 9 10 10 10 11 12 12 12 12 12
13 13 8 21 10 1 8 10 8 6 6 7 7 7 9 10 6 6 7 8 8 8 8 9 10 10 8 8 9 9 8 8 8 7 9 10 9 11 12 11 11 14 12 11
25 13 12 11 9 17 12 11 6 6 5 6 7 7 8 9 6 5 7 9 8 8 9 9 10 9 9 8 8 9 9 8 8 7 8 9 9 10 11 11 13 10 14 13
13 20 10 9 15 8 7 8 6 7 6 5 8 9 8 8 6 5 7 8 8 8 8 9 10 10 10 8 8 9 9 9 8 8 7 9 10 9 10 11 11 11 11 12
23 16 15 6 10 7 6 6 6 7 6 6 9 9 8 6 8 5 7 8 8 9 8 9 10 10 10 9 8 9 9 9 8 8 7 9 10 9 10 11 11 10 11 11
9 17 8 9 16 8 11 15 9 4 6 8 11 8 8 7 6 7 8 7 8 8 8 9 10 10 10 9 9 9 9 9 9 8 8 8 9 9 9 11 10 11 10 10
5 9 10 12 18 13 10 5 4 9 6 11 11 6 8 10 9 8 8 7 8 8 8 9 10 10 10 9 9 9 10 9 9 9 8 8 9 10 9 11 10 11 10 9
14 12 9 14 15 1 5 7 8 9 9 13 9 8 13 10 8 7 6 9 8 8 8 9 10 10 11 9 9 9 10 9 8 8 8 8 8 9 10 10 11 10 10 9
23 26 22 11 13 9 8 5 5 3 5 11 10 5 14 15 10 7 7 9 8 9 9 9 10 9 11 9 9 9 10 9 8 8 9 9 8 9 10 10 11 11 10 10
13 30 33 19 21 10 11 9 3 5 7 12 12 8 15 13 8 7 8 10 7 9 9 9 10 9 11 10 9 9 9 9 9 9 8 9 8 8 10 10 10 11 10 10
17 23 25 16 13 6 7 9 8 10 12 15 11 10 18 12 7 9 8 9 7 9 7 9 9 9 10 10 10 10 10 9 9 9 8 8 9 8 9 10 10 11 11 10
19 21 15 15 14 13 12 9 12 13 15 16 13 17 14 9 7 7 9 6 8 11 10 9 9 10 10 10 10 10 10 9 9 9 8 8 9 9 8 10 10 11 11 11
16 17 17 14 13 12 11 13 16 13 17 14 14 12 8 7 8 9 7 9 9 10 10 9 9 10 11 10 10 10 10 9 9 9 9 8 9 9 9 9 10 11 10 11
16 19 18 16 15 12 10 11 11 15 15 15 15 12 10 9 10 7 10 10 8 10 10 10 9 10 11 11 11 10 10 9 9 10 9 8 9 9 9 9 10 11 11 11
9 10 8 8 8 11 12 12 13 12 14 15 11 9 9 8 10 9 9 10 10 10 10 9 9 10 11 12 11 10 10 10 10 10 9 8 9 10 9 10 10 11 11 11
4 6 11 15 14 13 13 13 15 16 15 12 9 8 7 8 10 10 10 8 9 11 11 10 9 10 11 13 12 11 10 10 10 10 9 9 9 10 10 10 10 11 11 11
Height
3145 3147 3147 3148 3149 3149 3149 3151 3151 3149 3148 3149 3148 3147 3146 3145 3143 3142 3140 3138 3135 3132 3129 3124 3120 3116 3109 3103 3096 3088 3080 3072 3064 3056 3048 3041 3034 3027 3020 3014 3008 3003 2998 2992
3143 3145 3146 3147 3147 3146 3146 3146 3145 3145 3144 3144 3145 3144 3143 3141 3140 3140 3137 3135 3133 3131 3127 3123 3119 3114 3108 3101 3095 3088 3080 3071 3064 3055 3048 3041 3033 3026 3020 3015 3009 3004 2999 2993
3142 3144 3145 3143 3137 3138 3139 3140 3142 3141 3143 3142 3142 3141 3139 3139 3139 3137 3135 3132 3131 3129 3124 3122 3118 3112 3106 3100 3094 3087 3080 3072 3064 3055 3048 3040 3033 3027 3021 3015 3010 3004 2999 2994
3140 3142 3145 3132 3131 3133 3134 3135 3136 3137 3139 3139 3139 3137 3137 3137 3136 3135 3132 3131 3129 3126 3123 3120 3115 3110 3104 3098 3093 3087 3080 3072 3064 3055 3047 3039 3033 3027 3021 3015 3010 3005 3000 2995
3136 3135 3131 3128 3128 3130 3131 3133 3132 3133 3134 3135 3134 3134 3135 3134 3134 3132 3130 3129 3126 3124 3121 3117 3113 3108 3103 3097 3092 3086 3080 3072 3063 3055 3046 3039 3033 3027 3021 3016 3010 3005 3001 2996
3132 3132 3127 3123 3124 3127 3129 3127 3128 3130 3131 3131 3131 3132 3132 3132 3131 3129 3128 3126 3124 3122 3119 3115 3110 3105 3101 3096 3092 3086 3079 3072 3063 3055 3047 3039 3033 3027 3021 3016 3011 3006 3002 2997
3129 3127 3119 3120 3123 3126 3129 3130 3126 3127 3128 3128 3129 3130 3128 3128 3127 3126 3125 3124 3122 3120 3116 3112 3108 3103 3099 3095 3090 3085 3078 3071 3064 3056 3048 3040 3033 3028 3022 3017 3012 3008 3004 2999
3126 3125 3117 3115 3118 3121 3123 3123 3124 3125 3125 3125 3126 3125 3125 3126 3124 3123 3122 3121 3120 3117 3113 3110 3106 3102 3097 3093 3088 3083 3077 3071 3064 3057 3049 3041 3035 3028 3024 3019 3014 3010 3006 3001
3113 3110 3111 3112 3114 3116 3119 3120 3121 3123 3123 3122 3123 3123 3123 3123 3122 3120 3120 3119 3117 3114 3111 3108 3104 3100 3096 3092 3087 3082 3077 3071 3064 3057 3050 3043 3037 3030 3025 3020 3015 3011 3006 3002
3106 3107 3109 3110 3111 3113 3116 3117 3118 3120 3120 3120 3120 3120 3120 3120 3119 3118 3118 3117 3114 3111 3108 3105 3102 3098 3095 3091 3086 3081 3076 3071 3064 3057 3051 3044 3038 3032 3027 3021 3016 3011 3007 3003
3100 3102 3104 3105 3107 3110 3112 3113 3115 3116 3116 3117 3118 3118 3118 3117 3116 3116 3115 3113 3111 3108 3106 3103 3100 3097 3093 3089 3085 3081 3076 3070 3064 3058 3051 3044 3038 3032 3026 3021 3016 3012 3008 3003
3096 3099 3099 3102 3103 3106 3107 3110 3111 3112 3113 3114 3115 3115 3114 3114 3113 3112 3110 3109 3107 3105 3104 3101 3098 3095 3091 3088 3084 3080 3076 3071 3065 3059 3052 3046 3039 3034 3028 3022 3017 3012 3009 3005
3093 3094 3096 3096 3098 3101 3103 3106 3107 3108 3109 3110 3111 3111 3111 3110 3109 3108 3107 3106 3105 3103 3102 3099 3096 3092 3089 3086 3083 3079 3075 3070 3065 3060 3054 3048 3042 3036 3030 3024 3018 3014 3009 3006
3086 3087 3089 3091 3095 3097 3100 3101 3102 3103 3104 3106 3106 3106 3107 3106 3105 3105 3105 3104 3102 3101 3099 3097 3094 3090 3087 3084 3081 3078 3074 3069 3064 3060 3054 3048 3043 3037 3032 3027 3021 3015 3011 3006
3080 3082 3086 3088 3090 3093 3094 3096 3098 3099 3101 3101 3102 3103 3103 3103 3103 3103 3102 3101 3099 3098 3096 3094 3091 3088 3085 3082 3079 3076 3072 3068 3063 3059 3054 3049 3043 3038 3033 3028 3022 3017 3012 3008
3074 3076 3079 3081 3085 3088 3090 3092 3094 3095 3096 3097 3098 3099 3100 3100 3100 3099 3099 3097 3096 3095 3093 3091 3088 3086 3083 3080 3077 3074 3070 3066 3062 3058 3054 3049 3044 3039 3034 3029 3024 3019 3014 3010
3068 3070 3073 3075 3079 3082 3085 3087 3089 3090 3091 3092 3094 3095 3095 3096 3096 3096 3096 3094 3093 3092 3090 3088 3085 3083 3080 3077 3075 3071 3068 3065 3061 3057 3053 3049 3044 3039 3034 3029 3024 3020 3015 3010
3062 3065 3067 3071 3074 3077 3079 3082 3084 3085 3086 3088 3089 3090 3091 3092 3093 3093 3092 3090 3089 3088 3086 3085 3082 3080 3077 3075 3072 3069 3066 3062 3059 3055 3052 3048 3044 3039 3034 3029 3025 3020 3016 3011
3056 3058 3062 3064 3068 3071 3074 3076 3078 3080 3081 3083 3085 3086 3086 3087 3088 3088 3087 3086 3085 3084 3083 3081 3079 3077 3074 3072 3069 3066 3063 3060 3057 3053 3050 3046 3042 3038 3034 3030 3025 3021 3016 3012
3049 3050 3053 3057 3061 3065 3069 3071 3073 3075 3077 3078 3080 3080 3081 3082 3083 3083 3083 3083 3082 3081 3079 3078 3076 3073 3071 3068 3066 3063 3061 3058 3054 3051 3048 3044 3041 3037 3033 3029 3025 3021 3016 3012
3044 3044 3046 3051 3056 3060 3063 3066 3068 3070 3072 3073 3074 3076 3077 3076 3077 3078 3078 3079 3078 3076 3075 3074 3072 3070 3068 3065 3063 3060 3057 3055 3052 3049 3045 3042 3039 3035 3031 3028 3024 3020 3016 3012
3040 3041 3043 3048 3052 3056 3059 3061 3063 3064 3065 3067 3068 3070 3071 3071 3072 3073 3073 3073 3072 3072 3072 3070 3068 3066 3064 3061 3059 3057 3055 3051 3049 3046 3042 3040 3036 3032 3029 3026 3022 3019 3015 3011
3036 3038 3041 3045 3049 3051 3053 3055 3057 3058 3060 3062 3064 3065 3066 3067 3068 3069 3069 3068 3069 3068 3067 3066 3064 3062 3059 3057 3055 3053 3050 3048 3045 3042 3040 3036 3034 3030 3026 3023 3020 3017 3013 3009
3034 3036 3039 3041 3044 3046 3048 3051 3052 3054 3055 3057 3058 3060 3061 3062 3063 3064 3064 3065 3064 3063 3062 3060 3059 3057 3055 3052 3050 3048 3046 3044 3041 3039 3036 3033 3030 3027 3024 3020 3017 3014 3011 3007
3032 3034 3037 3039 3041 3043 3044 3046 3047 3049 3050 3052 3053 3055 3057 3058 3059 3060 3060 3060 3059 3058 3057 3056 3054 3052 3050 3048 3045 3043 3041 3039 3036 3034 3031 3029 3026 3024 3020 3017 3014 3011 3008 3004
3030 3032 3034 3036 3037 3039 3040 3041 3042 3044 3045 3047 3049 3051 3052 3053 3054 3055 3055 3055 3054 3053 3052 3051 3049 3047 3045 3043 3041 3038 3036 3034 3032 3030 3027 3024 3022 3019 3017 3014 3010 3007 3004 3001
3027 3028 3030 3031 3033 3034 3035 3037 3038 3039 3041 3044 3045 3046 3048 3048 3049 3049 3050 3050 3049 3048 3047 3046 3044 3042 3040 3038 3036 3033 3031 3029 3027 3025 3023 3020 3017 3015 3012 3009 3006 3003 3000 2997